User: anonymous   Login
Location: Waldport
(44.4270°N, 124.0680°W)
Time: 19:40:27
(UTC-08:00)
Language:

Cosmos 1023 Rocket - Orbit

View from above orbital plane
View from above orbital plane
View from above satellite
View from above satellite

Ground track
Ground track

The orbit data is extracted from the following two-line orbital elements,

1 10962U 78063B   17020.83448852  .00000011  00000-0  11524-4 0  9993
2 10962  74.0803 130.9376 0024107  70.5403 289.8354 14.41064756 24647
Epoch (UTC): 20 January 2017 20:01:39
Eccentricity: 0.0024107
inclination: 74.0803°
perigee height: 738 km
apogee height: 772 km
right ascension of ascending node: 130.9376°
argument of perigee: 70.5403°
revolutions per day: 14.41064756
mean anomaly at epoch: 289.8354°
orbit number at epoch: 2464

The dashed part of the orbit path shows where the satellite is in the earth's shadow,  

DLR